Regional Weather Roundup
Issued by NWS

Home | Current Version | Previous Version | Text Only | Print | Product List | Glossary Off
Versions: 1 2 3 4 5 6 7 8 9 10 11 12 13 14 15 16 17 18 19 20 21 22 23 24 25 26 27 28 29 30 31 32 33 34 35 36 37 38 39 40 41 42 43 44 45 46 47 48 49 50

000
ASUS44 KMEG 261910
RWRTN
TENNESSEE HOURLY STATE WEATHER ROUNDUP
NATIONAL WEATHER SERVICE MEMPHIS TN
200 PM CDT MON JUN 26 2017

TNZ002-004-019-021-049-052-054-088>092-262000-
WEST TENNESSEE

CITY           SKY/WX    TMP DP  RH WIND       PRES   REMARKS
MEMPHIS INTL   MOSUNNY   86  59  39 CALM      30.14F
NWS MEMPHIS      N/A     82 N/A N/A MISG        N/A
JACKSON        SUNNY     79  59  50 MISG      30.16F
SOMERVILLE     SUNNY     81  59  47 CALM      30.14F
COVINGTON      SUNNY     81  59  47 E5        30.16S
UNION CITY     SUNNY     77  55  47 VRB5      30.15F
BOLIVAR        SUNNY     81  59  47 CALM      30.15F
PARIS          SUNNY     77  55  47 NE5       30.16F
HUNTINGDON     SUNNY     75  55  50 CALM      30.16F
LEXINGTON      SUNNY     77  57  50 VRB5      30.16F
SELMER         SUNNY     79  61  53 CALM      30.15F
SAVANNAH       SUNNY     79  61  53 CALM      30.15F
$$

TNZ008-025-027-028-033-062-065-066-262000-
NORTH MIDDLE TENNESSEE

CITY           SKY/WX    TMP DP  RH WIND       PRES   REMARKS
NASHVILLE      PTSUNNY   81  51  35 NW5       30.16F
PORTLAND       SUNNY     77  52  41 N10       30.16F
CLARKSVILLE    SUNNY     78  53  41 N10       30.17F
SMYRNA         SUNNY     80  53  39 VRB5      30.17F
COOKEVILLE     SUNNY     75  55  50 CALM      30.16F
GALLATIN       SUNNY     79  52  38 VRB3      30.18F
CROSSVILLE     MOSUNNY   70  57  63 VRB5      30.20F
$$

TNZ061-075-076-078-094-096-097-262000-
SOUTH MIDDLE TENNESSEE

CITY           SKY/WX    TMP DP  RH WIND       PRES   REMARKS
FAYETTEVILLE   MOSUNNY   77  57  50 W6        30.17F
TULLAHOMA      SUNNY     73  57  56 NW5       30.19F
WINCHESTER     SUNNY     75  57  53 NW7       30.18F
MCMINNVILLE    SUNNY     75  61  60 SW5       30.17F
COLUMBIA       SUNNY     77  57  50 CALM      30.15F
SHELBYVILLE    SUNNY     75  57  53 CALM      30.17F
$$

TNZ017-018-042-046-047-262000-
NORTHEAST TENNESSEE

CITY           SKY/WX    TMP DP  RH WIND       PRES   REMARKS
TRI CITIES     MOSUNNY   79  54  41 W9G21     30.15F
ELIZABETHTON   PTSUNNY   75  52  43 W7        30.16S
$$

TNZ012-013-036-069-073-074-262000-
CENTRAL EAST TENNESSEE

CITY           SKY/WX    TMP DP  RH WIND       PRES   REMARKS
KNOXVILLE      CLOUDY    74  55  51 SW9       30.15F
OAK RIDGE      CLOUDY    77  59  53 VRB6      30.16F
DOWNTOWN KNOXV SUNNY     75  59  57 CALM      30.14F
GATLINBURG     SUNNY     75  52  43 W6        30.15F
MORRISTOWN     SUNNY     77  54  44 W12G18    30.15S
JACKSBORO      SUNNY     75  55  50 CALM      30.19S
$$

TNZ083-085-099-262000-
SOUTHEAST TENNESSEE

CITY           SKY/WX    TMP DP  RH WIND       PRES   REMARKS
CHATTANOOGA    MOSUNNY   83  54  36 W10       30.15F
$$

SKY/WX REPORTED AS FAIR MEANS FEW OR NO CLOUDS BELOW
12 THOUSAND FEET.





USA.gov is the U.S. government's official web portal to all federal, state and local government web resources and services.